Earlysville, VA

8:17 PM EST on February 05, 2016 (GMT -0500)
Charlottesville-Albemarle

Weather History for KCHO - December, 2010

Change the Weather History Date:

Sunday, December 19, 2010

  Actual Average Record
Temperature  
Mean Temperature 34 °F 37 °F  
Max Temperature 40 °F 46 °F - ()
Min Temperature 27 °F 28 °F - ()
Degree Days  
Heating Degree Days 31 28  
Month to date heating degree days 636 494  
Since 1 July heating degree days 1343 1385  
Cooling Degree Days 0 0  
Month to date cooling degree days 0 0  
Year to date cooling degree days 1713 1035  
Moisture  
Dew Point 19 °F    
Average Humidity 63    
Maximum Humidity 85    
Minimum Humidity 40    
Precipitation  
Precipitation 0.00 in 0.11 in - ()
Month to date precipitation 2.21 2.16  
Year to date precipitation 35.43 41.72  
Sea Level Pressure  
Sea Level Pressure 30.02 in    
Wind  
Wind Speed 2 mph (North)    
Max Wind Speed 9 mph    
Max Gust Speed 15 mph    
Visibility 9 miles    
Events      
T = Trace of Precipitation, MM = Missing Value Source: NWS Daily Summary

Daily Weather History Graph

Daily Weather History Graph

Search for Another Location

Airport or City:

Trip Planner

Search our weather history database for the weather conditions in past years. The results will help you decide how hot, cold, wet, or windy it might be!

Date:

Astronomy

Dec. 19, 2010 Rise Set
Actual Time 7:25 AM EST 4:56 PM EST
Civil Twilight 6:55 AM EST 5:26 PM EST
Nautical Twilight 6:22 AM EST 5:59 PM EST
Astronomical Twilight 5:50 AM EST 6:31 PM EST
Moon 3:28 PM EST (12/19) 5:46 AM EST (12/19)
Length of Visible Light 10h 30m
Length of Day
9h 30m
Waxing Gibbous, 97% of the Moon is Illuminated
Dec 19
Waxing Gibbous
Dec 21
Full
Dec 27
Last Quarter
Jan 4
New
Jan 12
First Quarter

Hourly Weather History & Observations

Time (EST) Temp. Windchill Dew Point Humidity Pressure Visibility Wind Dir Wind Speed Gust Speed Precip Events Conditions
12:53 AM 30.0 °F - 25.0 °F 82% 30.02 in 6.0 mi Calm Calm - N/A   Haze
1:53 AM 30.0 °F - 24.1 °F 79% 30.01 in 7.0 mi Calm Calm - N/A   Overcast
2:53 AM 30.0 °F - 24.1 °F 79% 30.03 in 7.0 mi Calm Calm - N/A   Overcast
3:53 AM 28.9 °F - 24.1 °F 82% 30.04 in 7.0 mi Calm Calm - N/A   Overcast
4:53 AM 28.9 °F - 24.1 °F 82% 30.01 in 6.0 mi Calm Calm - N/A   Haze
5:53 AM 28.9 °F - 23.0 °F 78% 30.03 in 7.0 mi Calm Calm - N/A   Mostly Cloudy
6:53 AM 27.0 °F - 23.0 °F 85% 30.04 in 6.0 mi Calm Calm - N/A   Scattered Clouds
7:53 AM 28.0 °F - 21.9 °F 78% 30.04 in 7.0 mi Calm Calm - N/A   Mostly Cloudy
8:53 AM 28.9 °F - 21.0 °F 72% 30.06 in 8.0 mi Calm Calm - N/A   Partly Cloudy
9:53 AM 32.0 °F 28.7 °F 21.0 °F 64% 30.07 in 9.0 mi NE 3.5 mph - N/A   Clear
11:53 AM 36.0 °F 33.3 °F 19.9 °F 52% 30.02 in 10.0 mi ENE 3.5 mph - N/A   Clear
12:53 PM 37.9 °F - 19.0 °F 47% 29.99 in 10.0 mi Calm Calm - N/A   Clear
1:53 PM 39.0 °F 35.7 °F 18.0 °F 43% 29.98 in 10.0 mi Variable 4.6 mph - N/A   Clear
2:53 PM 39.0 °F 36.8 °F 17.1 °F 41% 29.99 in 10.0 mi Variable 3.5 mph - N/A   Clear
3:53 PM 37.9 °F 35.5 °F 17.1 °F 43% 29.99 in 10.0 mi Variable 3.5 mph - N/A   Clear
4:53 PM 34.0 °F - 17.1 °F 50% 29.99 in 10.0 mi Calm Calm - N/A   Clear
5:53 PM 28.9 °F - 17.1 °F 61% 30.00 in 10.0 mi Calm Calm - N/A   Clear
6:53 PM 28.0 °F - 17.1 °F 63% 30.01 in 10.0 mi Calm Calm - N/A   Clear
7:53 PM 30.0 °F - 16.0 °F 56% 30.01 in 10.0 mi Calm Calm - N/A   Clear
8:53 PM 28.9 °F 25.2 °F 15.1 °F 56% 30.01 in 10.0 mi Variable 3.5 mph - N/A   Clear
9:53 PM 28.0 °F 22.8 °F 14.0 °F 56% 30.02 in 10.0 mi NNW 4.6 mph - N/A   Clear
10:53 PM 28.0 °F 24.2 °F 12.9 °F 53% 30.01 in 10.0 mi WNW 3.5 mph - N/A   Clear
11:53 PM 28.0 °F 21.7 °F 12.9 °F 53% 30.01 in 10.0 mi Variable 5.8 mph - N/A   Clear